Time,TemperatureF,DewpointF,PressureIn,WindDirection,WindDirectionDegrees,WindSpeedMPH,WindSpeedGustMPH,Humidity,HourlyPrecipIn,Conditions,Clouds,dailyrainin,SoftwareType,DateUTC
2013-06-25 00:02:00,81.0,81.0,30.17,North,360,1.0,-999.0,100,-99.99,,,-99.99,,2013-06-25 04:02:00,
2013-06-25 00:22:00,81.0,81.0,30.16,NW,325,2.0,-999.0,100,-99.99,,,-99.99,,2013-06-25 04:22:00,
2013-06-25 00:34:00,81.0,81.0,30.16,North,5,1.0,-999.0,100,-99.99,,,-99.99,,2013-06-25 04:34:00,
2013-06-25 00:43:00,81.0,81.0,30.16,NW,315,2.0,-999.0,100,-99.99,,,-99.99,,2013-06-25 04:43:00,
2013-06-25 00:52:00,81.0,81.0,30.16,NW,315,2.0,-999.0,100,-99.99,,,-99.99,,2013-06-25 04:52:00,
2013-06-25 01:01:00,81.0,81.0,30.16,North,350,2.0,-999.0,100,-99.99,,,-99.99,,2013-06-25 05:01:00,
2013-06-25 01:11:00,81.0,81.0,30.16,North,350,2.0,-999.0,100,-99.99,,,-99.99,,2013-06-25 05:11:00,
2013-06-25 01:22:00,81.0,81.0,30.16,NNW,343,2.0,-999.0,100,-99.99,,,-99.99,,2013-06-25 05:22:00,
2013-06-25 01:32:00,81.0,81.0,30.17,NNW,348,2.0,-999.0,100,-99.99,,,-99.99,,2013-06-25 05:32:00,
2013-06-25 01:44:00,81.0,81.0,30.17,NNW,337,2.0,-999.0,100,-99.99,,,-99.99,,2013-06-25 05:44:00,
2013-06-25 01:52:00,81.0,81.0,30.17,NNW,337,2.0,-999.0,100,-99.99,,,-99.99,,2013-06-25 05:52:00,
2013-06-25 02:01:00,81.0,81.0,30.16,NNW,328,2.0,-999.0,100,-99.99,,,-99.99,,2013-06-25 06:01:00,
2013-06-25 02:22:00,81.0,81.0,30.16,NE,37,2.0,-999.0,100,-99.99,,,-99.99,,2013-06-25 06:22:00,
2013-06-25 02:34:00,81.0,81.0,30.15,NW,315,2.0,-999.0,100,-99.99,,,-99.99,,2013-06-25 06:34:00,
2013-06-25 02:43:00,80.0,80.0,30.14,North,5,2.0,-999.0,100,-99.99,,,-99.99,,2013-06-25 06:43:00,
2013-06-25 02:52:00,80.0,80.0,30.14,North,5,2.0,-999.0,100,-99.99,,,-99.99,,2013-06-25 06:52:00,
2013-06-25 03:22:00,80.0,80.0,30.14,NNE,19,2.0,-999.0,100,-99.99,,,-99.99,,2013-06-25 07:22:00,
2013-06-25 03:33:00,80.0,80.0,30.14,NNE,16,1.0,-999.0,100,-99.99,,,-99.99,,2013-06-25 07:33:00,
2013-06-25 03:43:00,80.0,80.0,30.14,NNE,16,1.0,-999.0,100,-99.99,,,-99.99,,2013-06-25 07:43:00,
2013-06-25 03:52:00,80.0,80.0,30.14,NE,34,1.0,-999.0,100,-99.99,,,-99.99,,2013-06-25 07:52:00,
2013-06-25 04:22:00,80.0,80.0,30.14,North,350,2.0,-999.0,100,-99.99,,,-99.99,,2013-06-25 08:22:00,
2013-06-25 04:34:00,79.0,79.0,30.14,North,355,1.0,-999.0,100,-99.99,,,-99.99,,2013-06-25 08:34:00,
2013-06-25 04:43:00,79.0,79.0,30.14,NNE,20,1.0,-999.0,100,-99.99,,,-99.99,,2013-06-25 08:43:00,
2013-06-25 04:53:00,79.0,79.0,30.14,NNE,20,1.0,-999.0,100,-99.99,,,-99.99,,2013-06-25 08:53:00,
2013-06-25 05:02:00,79.0,79.0,30.14,NE,34,1.0,-999.0,100,-99.99,,,-99.99,,2013-06-25 09:02:00,
2013-06-25 05:22:00,79.0,79.0,30.14,North,5,1.0,-999.0,100,-99.99,,,-99.99,,2013-06-25 09:22:00,
2013-06-25 05:33:00,79.0,79.0,30.14,NNE,19,1.0,-999.0,100,-99.99,,,-99.99,,2013-06-25 09:33:00,
2013-06-25 05:43:00,79.0,79.0,30.15,North,360,0.0,-999.0,100,-99.99,,,-99.99,,2013-06-25 09:43:00,
2013-06-25 05:53:00,79.0,79.0,30.15,North,360,0.0,-999.0,100,-99.99,,,-99.99,,2013-06-25 09:53:00,
2013-06-25 06:22:00,79.0,79.0,30.15,NNE,17,0.0,-999.0,100,-99.99,,,-99.99,,2013-06-25 10:22:00,
2013-06-25 06:33:00,79.0,79.0,30.16,North,355,0.0,-999.0,100,-99.99,,,-99.99,,2013-06-25 10:33:00,
2013-06-25 06:52:00,79.0,79.0,30.16,NNE,18,0.0,-999.0,100,-99.99,,,-99.99,,2013-06-25 10:52:00,
2013-06-25 07:22:00,79.0,79.0,30.17,NNE,19,0.0,-999.0,100,-99.99,,,-99.99,,2013-06-25 11:22:00,
2013-06-25 07:34:00,79.0,79.0,30.17,North,5,0.0,-999.0,100,-99.99,,,-99.99,,2013-06-25 11:34:00,
2013-06-25 07:43:00,80.0,80.0,30.17,North,5,0.0,-999.0,100,-99.99,,,-99.99,,2013-06-25 11:43:00,
2013-06-25 07:52:00,80.0,80.0,30.17,North,5,0.0,-999.0,100,-99.99,,,-99.99,,2013-06-25 11:52:00,
2013-06-25 08:02:00,80.0,80.0,30.17,North,360,0.0,-999.0,100,-99.99,,,-99.99,,2013-06-25 12:02:00,
2013-06-25 08:22:00,81.0,81.0,30.18,NNE,32,0.0,-999.0,100,-99.99,,,-99.99,,2013-06-25 12:22:00,
2013-06-25 08:33:00,81.0,81.0,30.17,NNE,17,1.0,-999.0,100,-99.99,,,-99.99,,2013-06-25 12:33:00,
2013-06-25 08:55:00,81.0,81.0,30.18,NE,35,0.0,-999.0,100,-99.99,,,-99.99,,2013-06-25 12:55:00,
2013-06-25 09:12:00,82.0,82.0,30.18,North,5,1.0,-999.0,100,-99.99,,,-99.99,,2013-06-25 13:12:00,
2013-06-25 09:22:00,82.0,82.0,30.18,NNE,32,1.0,-999.0,100,-99.99,,,-99.99,,2013-06-25 13:22:00,
2013-06-25 18:52:00,82.0,82.0,30.09,NNW,343,2.0,-999.0,100,-99.99,,,-99.99,,2013-06-25 22:52:00,
2013-06-25 19:11:00,82.0,82.0,30.09,North,11,2.0,-999.0,100,-99.99,,,-99.99,,2013-06-25 23:11:00,
2013-06-25 19:34:00,81.0,81.0,30.08,North,360,2.0,-999.0,100,-99.99,,,-99.99,,2013-06-25 23:34:00,
2013-06-25 19:44:00,81.0,81.0,30.08,North,360,2.0,-999.0,100,-99.99,,,-99.99,,2013-06-25 23:44:00,
2013-06-25 19:52:00,81.0,81.0,30.08,NNE,29,1.0,-999.0,100,-99.99,,,-99.99,,2013-06-25 23:52:00,
2013-06-25 20:02:00,81.0,81.0,30.08,North,355,1.0,-999.0,100,-99.99,,,-99.99,,2013-06-26 00:02:00,
2013-06-25 20:11:00,81.0,81.0,30.08,North,355,1.0,-999.0,100,-99.99,,,-99.99,,2013-06-26 00:11:00,
2013-06-25 20:22:00,81.0,81.0,30.09,NNE,27,1.0,-999.0,100,-99.99,,,-99.99,,2013-06-26 00:22:00,
2013-06-25 20:33:00,81.0,81.0,30.09,North,5,1.0,-999.0,100,-99.99,,,-99.99,,2013-06-26 00:33:00,
2013-06-25 20:42:00,81.0,81.0,30.09,North,5,1.0,-999.0,100,-99.99,,,-99.99,,2013-06-26 00:42:00,
2013-06-25 20:53:00,81.0,81.0,30.09,WNW,302,1.0,-999.0,100,-99.99,,,-99.99,,2013-06-26 00:53:00,
2013-06-25 21:01:00,80.0,80.0,30.10,North,351,2.0,-999.0,100,-99.99,,,-99.99,,2013-06-26 01:01:00,
2013-06-25 21:11:00,80.0,80.0,30.10,North,351,2.0,-999.0,100,-99.99,,,-99.99,,2013-06-26 01:11:00,
2013-06-25 21:33:00,81.0,81.0,30.10,North,5,2.0,-999.0,100,-99.99,,,-99.99,,2013-06-26 01:33:00,
2013-06-25 21:43:00,81.0,81.0,30.10,NNW,327,2.0,-999.0,100,-99.99,,,-99.99,,2013-06-26 01:43:00,
2013-06-25 22:43:00,81.0,81.0,30.10,NE,46,1.0,-999.0,100,-99.99,,,-99.99,,2013-06-26 02:43:00,
2013-06-25 23:02:00,80.0,80.0,30.10,NNW,342,1.0,-999.0,100,-99.99,,,-99.99,,2013-06-26 03:02:00,
2013-06-25 23:11:00,80.0,80.0,30.09,NW,323,1.0,-999.0,100,-99.99,,,-99.99,,2013-06-26 03:11:00,
2013-06-25 23:22:00,80.0,80.0,30.09,North,11,2.0,-999.0,100,-99.99,,,-99.99,,2013-06-26 03:22:00,
2013-06-25 23:33:00,80.0,80.0,30.09,NNW,344,2.0,-999.0,100,-99.99,,,-99.99,,2013-06-26 03:33:00,
2013-06-25 23:43:00,80.0,80.0,30.09,NNW,344,2.0,-999.0,100,-99.99,,,-99.99,,2013-06-26 03:43:00,
2013-06-25 23:52:00,80.0,80.0,30.09,North,360,2.0,-999.0,100,-99.99,,,-99.99,,2013-06-26 03:52:00,